XK777 EDNY-EDDV

Flight info

Callsign XK777
Flight time 0h 52m
Altitude 40000
Route ALAGO1E ALAGO Z1 ETAGO Z3 ABUMO N850 WRB WRB1X
Aircraft C750/M-SBDE3FGHRWXY/S

Departure

Time 2026-04-26 14:44
Airport Bodensee Airport Friedrichshafen (EDNY)

Arrival

Time 2026-04-26 15:36
Airport Hannover Airport (EDDV)
Time Latitude Longitude Altitude Speed Heading
2026-04-26 14:22 47.67222 9.51996 1363 ft 0 kts 181°
2026-04-26 14:36 47.67221 9.51995 1363 ft 0 kts 193°
2026-04-26 14:36 47.67219 9.51986 1363 ft 2 kts 261°
2026-04-26 14:36 47.67236 9.51965 1363 ft 6 kts 323°
2026-04-26 14:36 47.67242 9.51908 1363 ft 6 kts 244°
2026-04-26 14:37 47.67220 9.51853 1362 ft 8 kts 239°
2026-04-26 14:37 47.67183 9.51758 1360 ft 14 kts 240°
2026-04-26 14:37 47.67134 9.51630 1360 ft 14 kts 240°
2026-04-26 14:37 47.67086 9.51505 1358 ft 15 kts 240°
2026-04-26 14:38 47.67032 9.51367 1356 ft 17 kts 240°
2026-04-26 14:38 47.66968 9.51203 1355 ft 20 kts 240°
2026-04-26 14:38 47.66898 9.51021 1349 ft 21 kts 240°
2026-04-26 14:38 47.66826 9.50837 1346 ft 21 kts 240°
2026-04-26 14:39 47.66785 9.50731 1347 ft 6 kts 240°
2026-04-26 14:39 47.66776 9.50706 1347 ft 0 kts 240°
2026-04-26 14:39 47.66771 9.50694 1351 ft 0 kts 241°
2026-04-26 14:42 47.66764 9.50675 1348 ft 5 kts 242°
2026-04-26 14:42 47.66783 9.50602 1348 ft 11 kts 336°
2026-04-26 14:42 47.66846 9.50639 1348 ft 10 kts 33°
2026-04-26 14:43 47.66906 9.50691 1347 ft 10 kts 29°
2026-04-26 14:43 47.66962 9.50729 1346 ft 8 kts 27°
2026-04-26 14:43 47.66990 9.50780 1348 ft 11 kts 60°
2026-04-26 14:43 47.67206 9.51337 1359 ft 118 kts 60°
2026-04-26 14:44 47.67706 9.52597 1682 ft 152 kts 58°
2026-04-26 14:44 47.68277 9.54012 2398 ft 166 kts 56°
2026-04-26 14:44 47.68910 9.55521 3109 ft 177 kts 57°
2026-04-26 14:44 47.69569 9.57125 3836 ft 186 kts 60°
2026-04-26 14:45 47.70158 9.58806 4665 ft 187 kts 57°
2026-04-26 14:45 47.70826 9.59710 4852 ft 210 kts 31°
2026-04-26 14:45 47.72897 9.60046 5287 ft 252 kts 344°
2026-04-26 14:45 47.74393 9.58532 5344 ft 269 kts 313°
2026-04-26 14:46 47.75280 9.56095 5798 ft 273 kts 289°
2026-04-26 14:46 47.75952 9.53481 6787 ft 275 kts 303°
2026-04-26 14:46 47.77239 9.51402 7745 ft 276 kts 315°
2026-04-26 14:46 47.78589 9.49344 8826 ft 278 kts 310°
2026-04-26 14:47 47.79978 9.47306 9765 ft 287 kts 323°
2026-04-26 14:47 47.81883 9.46336 10530 ft 299 kts 351°
2026-04-26 14:47 47.84044 9.46173 10854 ft 324 kts 358°
2026-04-26 14:47 47.86390 9.46232 11007 ft 350 kts
2026-04-26 14:48 47.88855 9.46300 11648 ft 355 kts 359°
2026-04-26 14:48 47.91331 9.46274 12414 ft 358 kts 358°
2026-04-26 14:48 47.93841 9.46230 13115 ft 363 kts 358°
2026-04-26 14:48 47.96378 9.46229 13841 ft 367 kts 359°
2026-04-26 14:49 47.98943 9.46244 14500 ft 370 kts 358°
2026-04-26 14:49 48.01525 9.46239 15188 ft 372 kts 358°
2026-04-26 14:49 48.04116 9.46223 15874 ft 374 kts 358°
2026-04-26 14:49 48.06724 9.46214 16562 ft 376 kts 358°
2026-04-26 14:50 48.09353 9.46214 17263 ft 379 kts 358°
2026-04-26 14:50 48.12002 9.46210 17990 ft 382 kts 358°
2026-04-26 14:50 48.14669 9.46201 18682 ft 385 kts 357°
2026-04-26 14:50 48.17363 9.46193 19291 ft 389 kts 357°
2026-04-26 14:51 48.20083 9.46194 19927 ft 393 kts 357°
2026-04-26 14:51 48.22837 9.46202 20554 ft 398 kts 357°
2026-04-26 14:51 48.25622 9.46205 21185 ft 402 kts 357°
2026-04-26 14:51 48.28436 9.46204 21791 ft 407 kts 357°
2026-04-26 14:52 48.31285 9.46205 22409 ft 411 kts 357°
2026-04-26 14:52 48.34161 9.46209 23023 ft 415 kts 357°
2026-04-26 14:52 48.37059 9.46212 23621 ft 419 kts 357°
2026-04-26 14:52 48.39995 9.46213 24152 ft 423 kts 357°
2026-04-26 14:53 48.42948 9.46216 24682 ft 426 kts 357°
2026-04-26 14:53 48.45922 9.46220 25205 ft 429 kts 357°
2026-04-26 14:53 48.48920 9.46222 25699 ft 433 kts 357°
2026-04-26 14:53 48.51943 9.46222 26211 ft 436 kts 357°
2026-04-26 14:54 48.54985 9.46219 26722 ft 439 kts 356°
2026-04-26 14:54 48.58046 9.46178 27225 ft 442 kts 356°
2026-04-26 14:54 48.61135 9.46122 27738 ft 446 kts 356°
2026-04-26 14:54 48.64208 9.46089 28239 ft 449 kts 356°
2026-04-26 14:55 48.67340 9.46067 28752 ft 452 kts 356°
2026-04-26 14:55 48.70495 9.45921 29212 ft 454 kts 352°
2026-04-26 14:55 48.73599 9.45079 29715 ft 453 kts 342°
2026-04-26 14:55 48.76579 9.43548 30194 ft 453 kts 334°
2026-04-26 14:56 48.79482 9.41653 30617 ft 455 kts 334°
2026-04-26 14:56 48.82406 9.39767 31055 ft 458 kts 334°
2026-04-26 14:56 48.85341 9.37892 31625 ft 456 kts 334°
2026-04-26 14:56 48.88250 9.36009 32294 ft 453 kts 334°
2026-04-26 14:57 48.91013 9.33779 32863 ft 449 kts 325°
2026-04-26 14:57 48.93513 9.30979 33524 ft 444 kts 317°
2026-04-26 14:57 48.95793 9.27839 34135 ft 442 kts 315°
2026-04-26 14:57 48.98067 9.24700 34704 ft 440 kts 316°
2026-04-26 14:58 49.00343 9.21587 35245 ft 439 kts 316°
2026-04-26 14:58 49.02608 9.18469 35789 ft 438 kts 316°
2026-04-26 14:58 49.04856 9.15347 36335 ft 437 kts 316°
2026-04-26 14:58 49.07099 9.12237 36882 ft 435 kts 316°
2026-04-26 14:59 49.09337 9.09142 37431 ft 434 kts 316°
2026-04-26 14:59 49.11573 9.06045 37976 ft 433 kts 316°
2026-04-26 14:59 49.13800 9.02953 38528 ft 432 kts 316°
2026-04-26 14:59 49.15350 9.01049 38844 ft 433 kts 323°
2026-04-26 15:00 49.18888 8.98080 39434 ft 436 kts 335°
2026-04-26 15:00 49.21778 8.96673 39853 ft 438 kts 345°
2026-04-26 15:00 49.24805 8.96013 40252 ft 442 kts 354°
2026-04-26 15:00 49.27891 8.96130 40668 ft 445 kts
2026-04-26 15:01 49.30975 8.96576 41083 ft 445 kts
2026-04-26 15:01 49.34058 8.97011 41493 ft 445 kts
2026-04-26 15:01 49.37148 8.97435 41908 ft 446 kts
2026-04-26 15:01 49.40233 8.97865 42331 ft 446 kts
2026-04-26 15:02 49.43327 8.98305 42746 ft 446 kts
2026-04-26 15:02 49.46409 8.98741 43164 ft 446 kts
2026-04-26 15:02 49.49500 8.99172 43584 ft 446 kts
2026-04-26 15:02 49.52588 8.99604 43975 ft 446 kts
2026-04-26 15:03 49.55681 9.00033 44363 ft 446 kts
2026-04-26 15:03 49.58774 9.00456 44743 ft 447 kts
2026-04-26 15:03 49.61871 9.00881 45102 ft 447 kts
2026-04-26 15:03 49.63923 9.01167 45335 ft 447 kts
2026-04-26 15:04 49.67020 9.01617 45661 ft 447 kts
2026-04-26 15:04 49.70106 9.02070 45982 ft 446 kts
2026-04-26 15:04 49.73200 9.02513 46287 ft 446 kts
2026-04-26 15:04 49.76294 9.02952 46557 ft 447 kts
2026-04-26 15:05 49.79392 9.03399 46824 ft 447 kts
2026-04-26 15:05 49.81440 9.03698 47003 ft 447 kts
2026-04-26 15:05 49.85583 9.04298 47269 ft 449 kts
2026-04-26 15:06 49.91871 9.04654 47248 ft 455 kts 352°
2026-04-26 15:06 49.97999 9.02104 47263 ft 460 kts 336°
2026-04-26 15:07 50.07056 8.96568 47259 ft 470 kts 338°
2026-04-26 15:07 50.13187 8.93006 47245 ft 473 kts 340°
2026-04-26 15:08 50.19668 8.91126 47259 ft 476 kts 351°
2026-04-26 15:08 50.22908 8.90531 47261 ft 462 kts 351°
2026-04-26 15:08 50.26088 8.89863 47256 ft 463 kts 349°
2026-04-26 15:09 50.29252 8.89142 46802 ft 456 kts 349°
2026-04-26 15:09 50.32391 8.88478 46021 ft 454 kts 350°
2026-04-26 15:09 50.35509 8.87860 45227 ft 451 kts 350°
2026-04-26 15:09 50.38607 8.87222 44381 ft 447 kts 349°
2026-04-26 15:10 50.41674 8.86561 43529 ft 443 kts 349°
2026-04-26 15:10 50.43690 8.86128 42985 ft 440 kts 349°
2026-04-26 15:10 50.47722 8.85288 41929 ft 435 kts 350°
2026-04-26 15:10 50.50714 8.84665 41172 ft 433 kts 349°
2026-04-26 15:11 50.53693 8.84033 40441 ft 432 kts 349°
2026-04-26 15:11 50.56680 8.83397 39758 ft 433 kts 349°
2026-04-26 15:11 50.59664 8.82767 38929 ft 432 kts 349°
2026-04-26 15:11 50.62672 8.82322 37499 ft 438 kts 356°
2026-04-26 15:12 50.65743 8.82689 36581 ft 445 kts
2026-04-26 15:12 50.68754 8.83721 36088 ft 443 kts 10°
2026-04-26 15:12 50.71777 8.84811 35613 ft 447 kts
2026-04-26 15:12 50.74823 8.85852 35148 ft 449 kts
2026-04-26 15:13 50.77830 8.86866 34683 ft 448 kts
2026-04-26 15:13 50.80894 8.87932 34272 ft 452 kts 10°
2026-04-26 15:13 50.83961 8.89013 33820 ft 452 kts 10°
2026-04-26 15:13 50.87041 8.90026 33357 ft 453 kts
2026-04-26 15:14 50.90131 8.90992 32961 ft 455 kts
2026-04-26 15:14 50.93240 8.92005 32359 ft 456 kts
2026-04-26 15:14 50.96344 8.93056 31759 ft 457 kts
2026-04-26 15:14 50.99458 8.94094 31152 ft 458 kts
2026-04-26 15:15 51.02595 8.95115 30553 ft 460 kts
2026-04-26 15:15 51.05710 8.96137 29907 ft 453 kts
2026-04-26 15:15 51.08798 8.96998 29314 ft 449 kts
2026-04-26 15:15 51.11856 8.97934 28713 ft 447 kts 11°
2026-04-26 15:16 51.14875 8.99067 28137 ft 444 kts 10°
2026-04-26 15:16 51.17881 9.00050 27554 ft 440 kts
2026-04-26 15:16 51.20872 9.00978 26978 ft 437 kts
2026-04-26 15:16 51.23833 9.01980 26412 ft 435 kts
2026-04-26 15:17 51.26789 9.03026 25827 ft 433 kts
2026-04-26 15:17 51.28732 9.03695 25452 ft 430 kts
2026-04-26 15:17 51.32634 9.04984 24696 ft 426 kts
2026-04-26 15:17 51.35522 9.05955 24131 ft 423 kts
2026-04-26 15:18 51.38393 9.06945 23535 ft 420 kts
2026-04-26 15:18 51.41239 9.07921 22980 ft 416 kts
2026-04-26 15:18 51.44064 9.08874 22433 ft 413 kts
2026-04-26 15:18 51.46868 9.09824 21896 ft 411 kts
2026-04-26 15:19 51.49649 9.10828 21341 ft 408 kts 12°
2026-04-26 15:19 51.52227 9.12748 20799 ft 410 kts 29°
2026-04-26 15:19 51.54630 9.15203 20280 ft 408 kts 30°
2026-04-26 15:19 51.57010 9.17668 19744 ft 405 kts 30°
2026-04-26 15:20 51.59376 9.20082 19208 ft 401 kts 30°
2026-04-26 15:20 51.61696 9.22433 18689 ft 398 kts 30°
2026-04-26 15:20 51.64018 9.24809 18132 ft 394 kts 30°
2026-04-26 15:20 51.66319 9.27179 17609 ft 391 kts 30°
2026-04-26 15:21 51.68602 9.29525 17104 ft 387 kts 30°
2026-04-26 15:21 51.70866 9.31845 16588 ft 384 kts 30°
2026-04-26 15:21 51.73108 9.34151 16083 ft 381 kts 30°
2026-04-26 15:21 51.75334 9.36447 15582 ft 378 kts 30°
2026-04-26 15:22 51.77535 9.38720 15080 ft 374 kts 30°
2026-04-26 15:22 51.79722 9.40978 14594 ft 371 kts 30°
2026-04-26 15:22 51.81882 9.43213 14099 ft 368 kts 30°
2026-04-26 15:22 51.84025 9.45440 13591 ft 364 kts 30°
2026-04-26 15:23 51.86152 9.47651 13110 ft 361 kts 30°
2026-04-26 15:23 51.88255 9.49838 12653 ft 358 kts 30°
2026-04-26 15:23 51.90347 9.52013 12212 ft 356 kts 30°
2026-04-26 15:23 51.92412 9.54161 11780 ft 346 kts 30°
2026-04-26 15:24 51.94365 9.56197 11335 ft 323 kts 30°
2026-04-26 15:24 51.96198 9.58116 10884 ft 305 kts 30°
2026-04-26 15:24 51.97940 9.59946 10442 ft 292 kts 30°
2026-04-26 15:24 51.99606 9.61701 10294 ft 279 kts 30°
2026-04-26 15:25 52.01245 9.63433 10294 ft 283 kts 30°
2026-04-26 15:25 52.02344 9.64591 10296 ft 285 kts 30°
2026-04-26 15:25 52.04572 9.66939 10302 ft 286 kts 30°
2026-04-26 15:25 52.06244 9.68702 10308 ft 287 kts 30°
2026-04-26 15:26 52.07927 9.70479 10049 ft 292 kts 30°
2026-04-26 15:26 52.09623 9.72263 9592 ft 288 kts 30°
2026-04-26 15:26 52.11288 9.74007 9231 ft 282 kts 30°
2026-04-26 15:26 52.12927 9.75716 8979 ft 279 kts 30°
2026-04-26 15:27 52.14570 9.77418 8628 ft 281 kts 30°
2026-04-26 15:27 52.16214 9.79114 8243 ft 279 kts 30°
2026-04-26 15:27 52.17847 9.80790 7862 ft 277 kts 30°
2026-04-26 15:27 52.19473 9.82446 7489 ft 274 kts 30°
2026-04-26 15:28 52.21092 9.84085 7123 ft 273 kts 30°
2026-04-26 15:28 52.22707 9.85709 6755 ft 272 kts 30°
2026-04-26 15:28 52.24315 9.87309 6364 ft 269 kts 30°
2026-04-26 15:28 52.25882 9.88856 5964 ft 258 kts 30°
2026-04-26 15:29 52.27394 9.90338 5565 ft 249 kts 30°
2026-04-26 15:29 52.28859 9.91765 5176 ft 242 kts 30°
2026-04-26 15:29 52.31696 9.94478 4363 ft 231 kts 30°
2026-04-26 15:30 52.34435 9.97059 3580 ft 224 kts 30°
2026-04-26 15:30 52.35829 9.98207 3136 ft 226 kts 17°
2026-04-26 15:30 52.37327 9.98523 3003 ft 206 kts
2026-04-26 15:31 52.38739 9.98670 2999 ft 203 kts
2026-04-26 15:31 52.41578 9.98992 3008 ft 205 kts
2026-04-26 15:31 52.43001 9.99134 3002 ft 205 kts
2026-04-26 15:32 52.44726 9.97043 2905 ft 181 kts 285°
2026-04-26 15:32 52.44755 9.94401 3010 ft 175 kts 272°
2026-04-26 15:32 52.44814 9.92369 2789 ft 181 kts 273°
2026-04-26 15:33 52.44872 9.90332 2534 ft 177 kts 273°
2026-04-26 15:33 52.44928 9.88329 2293 ft 175 kts 273°
2026-04-26 15:33 52.44984 9.86343 2050 ft 174 kts 273°
2026-04-26 15:33 52.45042 9.84399 1807 ft 173 kts 273°
2026-04-26 15:34 52.45111 9.82415 1569 ft 171 kts 273°
2026-04-26 15:34 52.45165 9.80518 1336 ft 162 kts 273°
2026-04-26 15:34 52.45198 9.78810 1148 ft 138 kts 272°
2026-04-26 15:34 52.45231 9.77272 942 ft 133 kts 273°
2026-04-26 15:35 52.45273 9.75785 739 ft 129 kts 272°
2026-04-26 15:35 52.45310 9.74348 581 ft 124 kts 273°
2026-04-26 15:35 52.45349 9.72941 412 ft 123 kts 273°
2026-04-26 15:35 52.45389 9.71550 259 ft 121 kts 274°
2026-04-26 15:36 52.45428 9.70216 178 ft 109 kts 272°
2026-04-26 15:36 52.45456 9.69247 180 ft 63 kts 272°
2026-04-26 15:36 52.45468 9.68624 179 ft 51 kts 273°
2026-04-26 15:36 52.45482 9.68289 177 ft 9 kts 285°
2026-04-26 15:37 52.45526 9.68251 177 ft 9 kts
2026-04-26 15:37 52.45605 9.68259 175 ft 12 kts
2026-04-26 15:37 52.45680 9.68266 175 ft 11 kts
2026-04-26 15:37 52.45745 9.68316 175 ft 10 kts 28°
2026-04-26 15:38 52.45792 9.68392 175 ft 9 kts 81°
2026-04-26 15:38 52.45789 9.68493 175 ft 9 kts 92°
2026-04-26 15:38 52.45786 9.68592 175 ft 9 kts 92°
2026-04-26 15:38 52.45783 9.68688 175 ft 8 kts 92°
2026-04-26 15:39 52.45781 9.68781 175 ft 8 kts 92°
2026-04-26 15:39 52.45779 9.68867 175 ft 6 kts 93°
2026-04-26 15:39 52.45768 9.68897 175 ft 2 kts 169°
2026-04-26 15:39 52.45750 9.68895 175 ft 5 kts 183°
2026-04-26 15:40 52.45708 9.68892 175 ft 1 kts 182°
2026-04-26 15:40 52.45707 9.68892 175 ft 0 kts 182°